カタログに戻る

STARLINK-32956

運用中通信VLEO
NORAD 63570·PAYLOAD·🇺🇸 United States

打ち上げ Apr 14, 2025 から Cape Canaveral Space Force Station

Loading…

次のパス (今後24時間)

TLE

最新Source: CelesTrak SupGP

元期: Sep 15, 2026, 03:06 UTC

1 63570C 25076B   26258.12965278  .00044402  00000+0  16079-2 0  2580
2 63570  43.0018 335.0536 0001699 264.5222 195.7305 15.27563721    12

AllMySatでSTARLINK-32956をリアルタイム追跡

Download on the App Store